Wetbulb
29.17 24.11 20.86 22.84 25.22 25.30 22.86 20.47 18.25 21.07 25.31 23.87 21.91 21.08 22.06 24.21 23.06 20.91 21.51 21.63 22.30 23.08 26.80 29.72 33.99 36.30 38.08 40.92 35.94 36.73 38.79 40.50 41.36 41.01 41.31 42.28 43.69 47.00 51.27 53.85 56.42 59.25 62.39 62.18
24.94 21.60 25.41 28.56 27.55 25.46 23.26 19.49 17.93 21.94 24.36 24.04 20.31 17.73 19.81 23.15 22.08 21.24 20.19 20.40 21.41 22.32 24.26 27.82 32.05 34.33 36.75 38.78 36.78 36.15 39.34 42.62 44.46 42.27 43.15 45.78 47.02 50.29 53.87 56.09 58.10 60.80 62.83 62.49
22.09 25.16 29.49 26.85 25.22 22.94 21.85 19.11 19.04 17.67 22.18 23.10 19.78 15.60 18.26 22.19 23.43 21.66 21.36 21.25 20.93 21.29 22.69 25.46 29.39 31.92 35.35 36.28 39.33 42.08 44.04 44.52 45.90 46.48 47.87 46.72 48.95 51.74 53.10 56.67 59.92 61.51 62.57 62.15
24.33 28.91 26.82 25.09 24.17 22.77 11.07 23.91 21.35 19.67 14.31 11.38 21.98 8.64 17.71 17.69 18.70 18.08 18.36 18.74 18.94 20.15 22.12 24.97 27.73 29.80 33.16 34.52 37.56 40.48 42.68 42.43 43.16 43.90 46.31 46.47 47.02 47.02 51.19 56.20 52.88 50.99 57.99 60.86
23.72 24.86 24.60 18.14 24.70 24.84 15.65 23.12 20.36 20.73 15.01 11.82 18.68 10.57 11.98 16.51 13.17 13.72 15.20 16.46 17.44 19.82 21.57 23.65 26.86 29.11 32.37 33.12 34.68 37.16 39.45 39.29 40.36 42.02 43.95 46.63 48.62 50.39 50.82 49.23 47.49 46.68 45.89 46.81
25.36 28.61 25.52 25.19 26.40 25.40 24.49 18.92 21.31 22.37 16.62 0.28 12.87 10.61 7.73 7.48 10.59 11.61 13.49 14.25 16.58 18.83 20.74 22.84 26.25 28.22 29.84 31.81 32.69 35.01 35.63 35.19 36.98 39.03 40.83 42.40 45.84 46.83 45.19 43.74 43.17 42.43 42.02 41.03
21.97 24.57 26.60 26.69 20.29 24.15 18.51 14.05 6.91 6.36 2.90 1.37 15.47 11.19 9.69 11.49 13.00 11.24 10.95 11.71 16.41 18.56 19.65 21.21 23.19 24.84 27.24 29.10 30.02 32.75 33.03 32.64 34.06 34.81 36.14 38.01 39.64 39.90 39.72 39.71 38.81 37.61 36.86 35.75
9.76 13.94 21.19 25.06 17.26 13.96 17.83 9.52 9.01 3.79 4.23 6.40 16.35 2.36 11.23 13.63 14.64 11.17 12.69 14.26 16.36 16.77 19.02 20.26 22.64 23.92 25.35 27.23 28.57 29.65 29.93 30.37 32.01 32.32 32.79 34.25 35.68 35.84 35.31 35.69 35.61 35.37 34.04 34.21
5.61 12.03 25.42 24.02 23.66 20.58 19.22 12.99 18.65 7.37 12.44 7.57 11.51 14.26 14.18 17.52 12.91 10.22 8.12 13.81 13.74 15.60 17.78 19.41 21.96 23.40 24.55 25.84 26.82 27.80 28.00 28.77 29.83 30.47 31.18 31.51 31.76 32.22 32.06 31.91 32.66 33.25 32.84 31.86
15.72 11.05 23.39 23.94 23.15 22.93 20.59 21.75 11.55 12.52 3.01 3.91 12.52 10.97 6.07 5.05 5.99 7.67 6.87 11.74 13.08 14.86 16.78 18.65 20.74 22.38 23.34 24.98 26.08 26.88 27.33 26.54 27.49 28.26 28.79 28.78 28.81 28.95 29.60 29.31 28.91 28.52 29.02 29.54
19.48 14.25 17.90 21.28 8.64 8.76 15.96 14.48 15.23 14.91 12.50 2.71 4.82 10.64 8.25 7.15 5.79 4.18 7.62 12.55 13.67 14.99 15.51 17.93 19.70 21.26 21.67 23.92 24.65 24.96 25.35 25.17 25.70 26.31 26.47 26.24 26.02 26.45 26.57 26.12 26.54 26.44 26.29 26.21
23.33 13.71 10.50 10.08 12.05 19.19 19.38 12.32 13.14 4.66 9.10 9.51 8.76 7.90 14.81 10.88 10.11 11.99 11.55 13.22 14.38 16.50 16.11 17.60 18.86 19.52 18.90 19.67 22.52 23.18 23.71 23.96 25.06 25.98 25.63 25.31 25.27 25.03 24.31 24.07 24.61 25.10 25.23 25.06
20.47 16.91 6.80 13.25 17.00 20.45 11.05 17.39 16.45 13.14 13.69 6.99 3.16 5.25 13.10 8.86 11.45 12.03 11.43 12.92 13.53 15.43 15.58 15.97 16.67 17.45 18.25 18.83 19.96 21.76 22.85 23.09 23.98 24.66 24.70 24.58 24.73 24.23 23.33 22.95 23.13 23.00 22.52 22.39
26.53 16.90 11.09 9.50 11.01 5.20 8.66 10.41 15.47 12.94 0.48 2.35 7.58 8.89 9.99 9.71 9.00 9.68 10.71 11.65 12.27 13.82 14.83 15.91 16.72 17.60 18.88 19.20 19.90 21.10 22.44 23.67 23.78 23.86 23.69 23.33 23.85 24.22 23.96 24.04 23.37 22.72 22.14 20.83
21.54 9.90 13.07 8.02 2.74 7.45 11.13 8.26 9.11 5.31 1.95 5.14 8.08 7.27 11.17 7.88 5.71 8.08 9.87 10.73 10.80 11.91 13.35 14.60 15.45 16.95 18.19 19.13 20.45 21.31 22.13 22.72 23.08 22.46 22.27 22.54 23.91 24.46 24.09 23.55 23.28 23.11 22.69 22.36
21.82 12.01 11.55 13.33 4.91 0.34 5.93 8.89 7.15 8.01 1.94 2.93 -2.82 2.90 6.69 6.75 4.44 4.29 7.28 9.38 9.85 11.01 12.23 13.46 14.65 15.81 17.12 17.89 18.35 20.30 20.71 21.14 22.06 21.18 20.92 21.96 22.40 22.68 22.57 22.80 22.31 21.89 21.15 20.68
15.65 13.54 9.12 6.13 8.23 11.73 8.48 10.01 1.48 1.22 -1.76 5.30 5.28 7.11 -1.20 3.16 1.30 0.09 3.09 7.17 8.56 8.81 11.20 12.11 13.65 15.25 16.32 17.92 19.32 18.27 19.31 20.66 20.32 20.27 20.78 20.91 20.72 20.03 20.09 20.16 20.35 20.41 20.07 20.57
15.60 14.20 16.27 13.09 4.88 6.28 12.33 0.59 4.89 7.12 5.76 1.00 0.65 1.80 0.77 3.18 2.32 2.21 5.01 5.59 7.61 8.40 8.94 10.70 13.11 15.37 16.59 17.50 17.92 18.33 18.53 18.80 18.73 18.55 18.98 19.17 18.74 18.31 18.47 18.30 17.85 17.86 17.93 17.84
19.93 17.71 9.84 7.75 12.37 11.66 16.82 15.83 9.94 12.82 15.12 7.82 7.37 0.57 0.47 1.22 5.48 3.01 0.66 0.96 2.16 0.93 2.00 7.58 10.01 11.17 14.58 15.23 16.92 16.74 16.16 16.64 16.41 16.04 16.34 17.11 17.30 16.77 16.89 16.25 15.97 16.46 16.35 16.28
24.42 17.94 10.92 13.37 6.49 6.51 13.50 10.55 14.97 10.75 14.60 10.11 8.22 7.38 7.24 13.76 7.86 7.40 -2.07 -1.47 -0.03 -0.97 0.54 2.81 6.89 11.98 11.89 11.65 15.06 14.53 13.75 13.88 13.46 14.53 15.19 16.05 16.41 15.94 15.23 15.72 15.75 16.17 16.12 15.93
17.15 17.34 8.60 4.17 14.27 11.55 13.63 17.48 21.31 14.12 20.26 10.31 12.82 9.40 13.62 10.73 7.77 0.46 4.61 0.69 0.41 3.15 4.35 6.64 8.61 8.48 8.95 12.63 13.95 12.59 12.09 11.75 14.12 15.05 15.04 14.75 14.61 14.22 14.39 14.32 14.45 14.23 13.87 13.74
12.98 10.99 9.93 15.07 13.86 13.57 17.64 20.60 17.28 19.91 5.89 9.40 14.82 13.03 14.04 1.01 -2.59 1.53 2.76 3.94 5.88 4.35 7.94 9.95 9.89 10.12 10.77 13.71 13.47 11.77 11.17 12.54 12.65 12.84 12.59 12.01 11.88 14.73 13.35 11.06 12.09 11.29 10.54 9.64
15.72 19.96 16.03 18.43 18.90 16.21 22.34 16.94 13.07 9.70 16.58 11.07 16.69 13.92 16.53 8.52 7.00 8.17 8.41 9.31 10.66 11.01 10.75 11.35 10.13 10.08 10.13 10.76 11.38 9.81 9.69 10.20 8.91 7.12 5.23 7.04 10.39 13.61 13.07 9.89 10.15 9.79 8.44 8.24
21.58 22.55 19.95 19.43 19.06 19.78 20.31 14.14 11.25 14.77 19.19 19.67 21.47 19.12 17.93 13.77 10.76 9.62 10.22 10.53 10.76 11.48 10.80 10.80 9.68 8.34 7.91 8.47 11.55 10.45 9.97 8.95 3.02 4.46 6.42 7.52 8.95 9.62 9.74 13.11 12.15 9.50 7.94 7.26
23.03 22.64 21.05 19.84 22.00 18.06 21.57 22.45 22.19 18.27 18.42 20.85 19.55 18.99 18.62 15.21 11.92 11.52 12.32 12.30 11.89 11.64 10.93 9.80 8.99 8.43 7.46 7.44 7.31 5.58 7.51 5.53 6.61 5.95 7.20 7.19 7.16 6.61 8.43 10.51 9.59 11.49 11.08 9.75
23.22 22.98 22.61 22.41 24.72 25.61 26.10 24.86 23.60 21.97 21.49 21.67 20.04 17.45 16.85 17.21 13.97 13.74 13.20 13.28 12.27 10.86 9.78 8.48 7.42 6.88 6.05 5.05 4.33 2.90 1.97 3.76 5.97 6.72 6.32 5.67 6.55 4.19 5.58 5.13 5.46 17.25 18.81 19.41
MSLP
1019.51 1020.07 1020.45 1020.51 1020.61 1020.77 1020.94 1020.90 1020.49 1019.78 1019.81 1020.18 1020.18 1020.66 1020.45 1020.15 1020.36 1020.37 1020.25 1020.14 1019.77 1018.85 1017.74 1016.50 1015.06 1014.11 1013.05 1011.93 1011.32 1010.73 1010.10 1009.47 1009.34 1009.44 1009.36 1009.21 1008.87 1008.54 1007.93 1007.45 1007.53 1007.41 1007.26 1007.18
1020.39 1020.38 1020.34 1020.19 1020.40 1020.62 1020.63 1020.71 1020.36 1019.68 1019.84 1020.18 1020.67 1021.27 1021.21 1020.97 1021.12 1021.36 1021.28 1021.06 1020.50 1019.29 1017.83 1016.70 1015.48 1014.40 1013.48 1012.53 1011.47 1010.74 1010.22 1009.85 1009.65 1009.53 1009.37 1009.07 1008.71 1008.13 1007.64 1007.12 1007.07 1006.76 1006.53 1006.82
1020.99 1020.46 1020.12 1020.19 1020.20 1020.29 1020.35 1020.46 1020.63 1020.76 1020.00 1019.99 1020.99 1021.31 1021.51 1021.61 1021.53 1021.81 1021.91 1021.88 1021.30 1020.57 1019.38 1017.77 1016.32 1015.28 1014.11 1013.08 1012.06 1011.16 1010.73 1010.43 1010.07 1009.72 1009.25 1008.76 1008.35 1008.03 1007.49 1006.84 1006.57 1006.30 1006.35 1006.61
1021.07 1020.41 1020.36 1020.18 1020.55 1020.91 1020.93 1020.55 1020.82 1020.53 1020.79 1020.91 1021.19 1021.67 1021.65 1021.88 1021.97 1022.59 1022.72 1022.47 1022.00 1021.09 1019.93 1018.60 1017.33 1016.08 1015.04 1014.05 1013.05 1012.12 1011.23 1011.01 1010.58 1010.19 1009.45 1009.41 1009.00 1008.45 1007.53 1007.28 1007.55 1006.88 1006.36 1006.70
1021.04 1020.71 1020.46 1020.62 1020.82 1021.35 1021.19 1020.55 1020.39 1020.65 1021.12 1021.56 1021.52 1022.40 1022.09 1022.55 1022.78 1023.18 1023.36 1023.21 1022.72 1021.89 1020.83 1019.58 1018.28 1017.19 1016.01 1015.01 1014.09 1013.15 1012.24 1011.67 1011.14 1010.57 1010.19 1009.44 1008.87 1008.39 1007.91 1008.23 1008.54 1008.05 1007.76 1007.43
1021.79 1021.04 1020.92 1021.23 1021.11 1021.29 1021.26 1020.58 1020.44 1020.94 1021.69 1022.29 1021.91 1022.83 1022.95 1024.09 1025.12 1024.49 1024.55 1024.05 1023.35 1022.31 1021.37 1020.31 1019.21 1018.00 1016.70 1015.92 1014.95 1013.87 1013.10 1012.43 1011.80 1011.06 1010.81 1010.02 1009.28 1008.80 1008.67 1009.08 1009.57 1008.77 1008.98 1009.25
1022.80 1021.77 1021.57 1021.99 1021.91 1021.40 1022.23 1021.96 1022.06 1022.19 1022.66 1022.21 1021.92 1022.73 1023.14 1024.78 1025.92 1026.19 1025.72 1024.97 1023.90 1022.86 1021.86 1020.76 1019.57 1018.42 1017.50 1016.63 1015.80 1014.64 1013.72 1013.12 1012.59 1012.28 1011.90 1011.17 1010.74 1010.10 1010.26 1010.31 1011.05 1010.49 1010.55 1010.90
1024.72 1022.68 1022.62 1023.09 1023.49 1023.58 1023.51 1024.12 1024.51 1024.43 1023.85 1022.61 1021.72 1022.59 1023.38 1024.98 1026.06 1026.48 1026.50 1025.70 1024.65 1023.70 1022.79 1021.74 1020.68 1019.70 1018.70 1017.64 1016.60 1015.66 1014.83 1014.30 1013.80 1013.39 1012.95 1012.46 1011.88 1011.52 1011.57 1011.57 1012.65 1011.70 1011.90 1012.64
1025.77 1024.13 1023.42 1023.64 1023.73 1024.27 1023.74 1024.48 1025.00 1024.88 1024.24 1023.83 1022.11 1022.68 1023.76 1024.85 1025.89 1026.51 1026.36 1025.55 1025.06 1024.27 1023.38 1022.48 1021.49 1020.56 1019.54 1018.47 1017.61 1016.85 1016.10 1015.57 1015.01 1014.41 1014.05 1013.70 1013.32 1012.89 1013.61 1013.13 1013.44 1012.85 1013.17 1013.74
1025.74 1024.94 1023.98 1024.28 1024.43 1024.61 1024.66 1025.16 1025.48 1025.19 1025.25 1024.36 1022.68 1023.25 1024.67 1025.41 1025.89 1026.66 1026.58 1026.15 1025.55 1024.87 1023.98 1023.01 1022.09 1021.20 1020.38 1019.43 1018.58 1017.84 1017.30 1016.78 1016.29 1015.59 1015.28 1015.18 1015.02 1014.82 1015.41 1015.02 1014.46 1014.50 1014.55 1015.16
1025.81 1025.98 1025.01 1024.93 1026.01 1025.90 1025.65 1025.82 1026.05 1026.07 1025.78 1025.76 1025.04 1024.00 1025.43 1026.71 1027.19 1027.24 1027.05 1026.73 1026.33 1025.33 1024.51 1023.65 1022.85 1022.08 1021.27 1020.38 1019.51 1018.80 1018.23 1017.76 1017.37 1016.78 1016.60 1016.63 1016.76 1016.71 1016.91 1016.28 1016.35 1016.66 1016.11 1017.05
1025.35 1026.27 1026.00 1026.13 1026.52 1026.41 1026.69 1026.80 1027.20 1027.22 1026.69 1026.77 1026.87 1025.56 1025.80 1026.96 1027.25 1027.40 1027.15 1027.13 1026.62 1025.86 1025.15 1024.32 1023.62 1022.94 1022.14 1021.38 1020.58 1020.01 1019.52 1018.98 1018.69 1018.34 1017.99 1018.29 1018.32 1018.63 1019.09 1018.41 1018.71 1017.82 1017.85 1018.80
1025.14 1026.09 1026.91 1026.45 1027.35 1026.87 1027.52 1027.28 1027.57 1027.92 1028.01 1027.95 1028.11 1026.04 1026.37 1027.13 1027.46 1027.48 1027.44 1027.35 1027.03 1026.40 1025.82 1025.13 1024.38 1023.76 1023.18 1022.53 1021.85 1021.26 1020.81 1020.46 1020.11 1019.85 1019.46 1019.69 1019.94 1020.26 1020.74 1019.64 1019.74 1019.41 1019.73 1020.62
1025.35 1026.41 1026.96 1028.08 1028.25 1028.71 1028.00 1028.09 1028.05 1028.63 1029.15 1028.96 1028.62 1027.30 1026.76 1027.71 1028.05 1027.87 1028.04 1028.01 1027.41 1027.02 1026.38 1025.85 1025.15 1024.60 1024.09 1023.52 1022.96 1022.53 1022.05 1021.70 1021.45 1021.00 1020.89 1021.10 1021.52 1021.99 1022.37 1022.97 1021.50 1020.72 1021.35 1021.62
1025.62 1026.72 1027.47 1027.27 1028.31 1029.04 1028.64 1028.58 1028.70 1029.30 1029.55 1029.67 1028.82 1029.20 1028.22 1028.73 1029.06 1028.97 1028.35 1028.20 1028.14 1027.77 1027.12 1026.74 1026.19 1025.50 1025.04 1024.49 1024.08 1023.74 1023.41 1023.08 1022.83 1022.40 1022.43 1022.72 1023.40 1023.82 1024.23 1024.13 1022.24 1022.41 1022.76 1023.72
1025.90 1026.71 1027.58 1027.77 1028.34 1028.88 1029.06 1028.14 1028.77 1029.61 1029.65 1029.84 1029.78 1029.89 1029.31 1029.59 1030.32 1030.52 1030.33 1029.80 1029.34 1028.90 1028.41 1027.91 1027.62 1027.03 1026.50 1026.17 1025.66 1025.15 1024.80 1024.29 1023.73 1023.70 1024.35 1024.48 1024.87 1025.28 1025.10 1024.74 1023.80 1023.95 1024.19 1024.59
1026.17 1026.87 1027.70 1028.13 1027.87 1028.15 1028.26 1027.26 1028.00 1029.00 1029.37 1029.47 1029.53 1029.94 1030.46 1030.67 1031.04 1031.07 1030.98 1030.55 1030.24 1029.86 1029.44 1028.88 1028.41 1027.92 1027.45 1027.00 1026.62 1026.01 1025.60 1025.24 1024.95 1025.42 1025.77 1026.14 1026.14 1026.13 1025.92 1026.34 1025.66 1025.41 1025.58 1026.14
1026.21 1026.93 1027.47 1027.50 1027.01 1026.80 1025.63 1025.87 1026.71 1027.68 1027.84 1028.43 1029.02 1029.40 1030.29 1030.78 1031.10 1031.32 1031.34 1031.29 1030.95 1030.53 1030.15 1029.74 1029.29 1028.67 1028.01 1027.51 1027.14 1026.87 1026.76 1026.80 1027.00 1027.16 1027.09 1027.36 1027.92 1028.18 1027.91 1027.55 1027.30 1027.39 1027.54 1027.59
1025.92 1026.45 1027.05 1027.39 1027.12 1025.52 1024.24 1024.87 1025.54 1026.47 1026.15 1026.57 1027.72 1029.01 1029.52 1030.49 1030.96 1031.20 1031.13 1031.51 1031.52 1031.51 1030.99 1030.51 1029.84 1029.30 1028.82 1028.27 1027.92 1027.83 1028.01 1028.06 1027.81 1028.10 1028.84 1029.34 1028.95 1028.67 1028.67 1028.52 1029.11 1029.23 1028.95 1029.00
1025.78 1026.06 1026.51 1026.53 1025.96 1024.57 1022.99 1022.84 1023.48 1024.41 1024.70 1024.75 1026.31 1027.75 1028.63 1029.69 1030.42 1030.68 1030.77 1031.37 1031.46 1031.43 1031.38 1030.98 1030.11 1029.74 1029.54 1029.41 1029.05 1028.91 1029.24 1029.48 1029.75 1029.88 1029.60 1029.29 1029.47 1029.81 1029.90 1030.05 1030.02 1029.85 1029.63 1030.22
1025.58 1025.59 1025.56 1025.58 1024.82 1023.15 1021.54 1022.24 1023.08 1023.73 1023.20 1023.07 1024.78 1026.63 1027.94 1028.83 1029.24 1029.62 1030.30 1030.90 1031.10 1031.24 1030.82 1030.27 1029.91 1029.59 1029.78 1029.93 1029.99 1030.20 1030.53 1030.63 1030.66 1030.42 1030.43 1030.47 1030.53 1030.71 1030.77 1030.70 1030.57 1030.37 1030.59 1031.18
1023.65 1024.18 1024.23 1023.99 1023.31 1021.46 1020.82 1022.45 1022.61 1021.18 1021.62 1022.08 1023.44 1024.68 1026.71 1027.99 1028.80 1029.39 1030.35 1030.80 1030.72 1030.52 1030.39 1030.30 1030.41 1030.65 1030.71 1030.53 1030.54 1030.98 1031.28 1031.47 1031.26 1031.22 1031.39 1031.55 1031.46 1031.38 1031.39 1031.18 1031.24 1031.28 1031.34 1031.68
1022.03 1020.84 1020.94 1020.83 1019.09 1018.43 1018.67 1019.05 1019.59 1020.39 1020.63 1021.61 1022.23 1023.77 1025.09 1027.04 1028.24 1028.85 1029.56 1030.10 1030.38 1030.37 1030.28 1030.37 1030.57 1030.95 1031.18 1031.24 1031.36 1031.75 1032.12 1032.17 1032.28 1032.56 1032.66 1032.38 1032.04 1031.93 1031.83 1031.67 1031.76 1031.93 1032.01 1032.06
1020.13 1019.55 1019.53 1019.26 1017.63 1017.76 1018.00 1018.67 1019.29 1019.70 1019.99 1020.47 1021.04 1022.55 1024.17 1025.57 1027.19 1028.22 1028.84 1029.26 1029.61 1029.97 1030.26 1030.53 1031.00 1031.43 1031.71 1031.82 1031.84 1032.12 1032.51 1032.70 1032.88 1033.07 1032.89 1032.65 1032.45 1032.36 1032.17 1032.03 1031.96 1032.03 1032.34 1032.50
1018.89 1018.89 1018.25 1017.61 1016.37 1017.05 1016.89 1017.28 1017.65 1018.59 1019.33 1020.05 1020.86 1021.64 1022.96 1024.52 1026.10 1026.81 1027.73 1028.34 1028.74 1029.19 1029.72 1030.21 1030.73 1031.21 1031.69 1032.08 1032.35 1032.51 1032.69 1032.88 1033.01 1032.93 1032.78 1032.71 1032.61 1032.44 1032.33 1032.19 1032.07 1032.05 1032.35 1032.34
1017.17 1016.13 1016.32 1014.98 1014.09 1014.48 1014.53 1014.83 1016.49 1017.67 1018.55 1019.05 1019.85 1021.47 1022.55 1023.34 1024.74 1025.93 1026.74 1027.31 1027.97 1028.60 1029.19 1029.76 1030.15 1030.62 1031.14 1031.71 1032.15 1032.26 1032.37 1032.53 1032.58 1032.86 1033.00 1032.93 1032.96 1033.06 1033.03 1032.89 1032.52 1031.64 1031.46 1031.48
Wind_Speed
4 4 3 6 3 5 6 10 11 11 10 10 5 3 6 5 11 13 14 15 15 17 17 15 17 17 16 13 8 7 8 7 4 2 2 3 3 4 4 4 7 9 10 12
5 1 3 6 5 5 8 11 6 8 3 7 3 4 5 7 8 13 14 16 17 19 21 20 19 18 17 16 9 7 8 7 5 2 3 3 3 4 4 4 6 9 9 11
2 2 6 5 7 11 8 4 5 8 8 1 3 5 1 5 5 15 15 15 17 18 18 20 20 17 17 17 16 10 12 12 9 9 5 3 3 3 3 4 5 7 9 9
4 3 4 6 5 7 6 5 11 12 2 2 3 5 2 8 9 17 17 17 17 18 17 18 18 18 16 16 14 14 12 13 12 12 9 9 5 6 2 3 5 6 2 11
2 4 4 4 9 5 10 17 11 5 2 3 3 0 3 6 13 20 19 19 17 18 18 18 17 18 15 15 13 12 11 13 14 12 10 8 9 4 4 5 6 8 9 13
5 5 2 0 11 1 13 5 1 2 2 3 4 3 4 3 7 15 16 16 19 19 18 17 17 16 15 14 14 12 12 13 14 13 13 12 9 6 6 7 6 5 8 8
5 1 3 5 6 3 9 6 4 5 5 6 4 2 5 3 3 7 15 16 17 17 17 17 18 17 16 16 16 12 14 15 14 14 14 13 11 11 10 10 6 5 8 10
4 8 6 5 5 4 5 4 2 4 4 7 4 4 5 7 5 4 10 10 15 16 16 16 17 15 15 15 15 14 15 14 14 13 13 12 12 9 9 11 6 9 10 9
3 7 1 4 1 2 5 5 1 2 3 4 3 2 3 4 9 9 10 14 14 16 16 16 15 13 13 13 14 14 14 14 14 14 12 13 13 14 10 11 9 10 13 13
3 4 2 3 4 3 3 4 1 1 4 5 5 4 5 11 17 14 13 14 15 15 16 15 13 13 12 12 12 13 13 12 13 14 14 13 14 15 11 11 14 15 16 16
4 4 3 4 2 4 4 3 2 2 1 2 5 5 4 4 9 11 10 11 12 13 14 13 12 12 11 11 12 12 12 13 13 14 15 16 15 15 13 13 16 14 19 17
4 4 3 8 5 4 3 4 2 3 3 2 1 8 3 4 6 8 11 12 11 11 12 12 12 11 11 11 11 12 12 13 13 13 16 16 16 15 13 15 14 16 19 17
4 0 5 9 3 2 2 4 3 3 1 3 0 8 4 2 7 9 10 11 10 11 12 10 10 10 10 11 11 11 12 13 13 13 16 17 17 15 14 15 14 19 20 17
4 2 7 8 9 2 6 2 1 3 3 2 6 12 8 8 10 11 10 10 9 10 10 10 10 10 10 10 10 11 12 12 13 15 17 18 16 15 15 12 16 20 18 20
3 2 3 6 2 3 5 5 1 4 5 4 4 4 11 6 7 10 10 12 11 10 12 11 10 10 11 11 11 11 11 12 13 17 18 17 14 13 13 12 19 19 19 17
1 2 2 5 4 2 4 5 4 4 3 6 1 6 3 1 3 6 6 7 7 8 8 9 9 9 9 10 9 9 10 12 13 16 14 14 12 11 12 13 18 18 18 17
1 3 3 5 3 0 6 7 4 3 3 5 0 6 1 4 3 3 3 4 5 6 7 7 7 7 9 9 10 12 12 13 15 14 12 12 12 12 14 13 14 17 17 16
4 3 1 3 5 5 8 2 4 5 6 6 3 4 4 4 4 4 3 1 3 4 4 5 4 7 8 10 11 12 12 12 11 11 12 12 11 10 11 12 14 15 12 13
3 3 2 2 1 8 1 5 7 7 7 10 8 3 4 4 1 5 5 4 4 3 3 3 3 3 6 9 8 10 10 9 12 12 10 6 7 10 10 13 11 9 11 12
4 3 4 2 5 5 9 5 5 3 5 11 7 7 8 8 4 5 5 4 2 3 3 3 4 5 8 7 8 10 9 8 8 6 7 9 8 7 8 8 8 9 10 11
3 2 4 3 4 9 7 5 6 6 9 9 12 7 8 5 4 4 7 2 1 1 2 2 6 7 5 6 7 9 7 8 5 6 6 6 6 6 5 7 6 7 8 8
8 8 5 3 1 7 7 6 8 7 3 6 9 11 10 4 0 4 6 5 4 3 2 3 6 6 5 5 6 6 5 2 4 5 5 5 4 4 4 6 6 6 6 7
3 8 6 9 9 3 15 6 4 4 7 7 8 7 13 11 7 9 7 8 7 6 5 3 5 5 3 3 4 6 1 1 3 3 2 1 3 4 4 5 5 5 4 5
5 4 3 4 3 7 13 3 3 6 4 6 6 11 14 13 13 9 10 9 8 8 8 6 7 6 5 3 4 3 4 3 4 5 4 2 4 4 3 4 4 4 4 3
4 5 4 7 7 2 8 13 10 5 5 9 9 8 14 15 15 14 13 12 10 9 7 6 8 8 7 6 6 5 6 6 6 4 3 3 2 3 3 3 3 2 1 4
8 10 8 9 6 4 5 9 13 12 10 12 13 11 10 15 16 14 12 12 11 11 8 8 8 7 8 7 7 6 6 6 6 5 4 3 3 1 2 2 2 2 5 5
Wind_Direction
354 44 341 297 250 227 259 289 284 293 306 311 307 328 346 358 15 360 1 358 351 345 334 339 345 346 343 339 318 317 326 336 2 333 309 297 265 274 264 238 234 252 248 199
10 342 273 277 274 290 298 300 283 296 303 331 31 294 308 9 18 7 3 353 351 344 344 346 347 348 348 349 322 324 338 344 342 319 290 261 280 282 265 264 235 245 233 186
158 259 299 321 326 338 317 215 288 285 327 177 143 274 274 346 340 5 3 353 353 352 339 341 346 345 345 352 350 3 7 0 358 349 328 312 280 275 284 286 281 235 200 171
232 273 302 332 313 16 316 196 316 291 90 250 152 283 137 348 345 1 355 352 347 345 342 344 344 345 345 351 349 358 6 5 2 352 346 325 281 272 282 2 2 37 16 156
247 310 338 10 323 4 250 312 290 234 154 60 196 100 237 0 343 345 348 346 344 343 344 338 343 342 343 353 351 355 5 15 7 6 353 327 286 265 59 53 14 49 40 43
267 289 132 259 318 216 325 335 221 83 74 16 234 132 288 349 332 327 338 338 339 340 343 342 346 345 351 356 354 1 8 20 11 15 4 7 8 61 68 56 26 31 48 44
329 284 31 48 323 341 17 351 352 358 1 230 262 123 247 172 356 323 326 327 336 342 345 347 351 353 353 357 359 0 15 22 18 19 13 18 28 56 62 63 45 60 58 49
46 335 26 354 126 242 358 92 51 295 316 296 317 252 283 173 135 328 328 317 340 342 347 346 350 350 350 355 5 12 20 23 25 25 24 26 32 51 56 62 70 73 72 72
64 284 63 66 351 146 332 39 252 256 214 294 267 238 135 237 353 353 341 346 346 345 347 345 344 350 352 1 12 21 27 30 32 33 34 37 41 49 46 54 65 72 77 76
227 339 138 123 359 5 93 332 114 220 341 300 304 291 257 336 333 340 344 348 344 343 347 343 347 357 359 4 13 26 33 36 35 45 41 41 44 49 45 60 67 71 72 75
153 112 302 67 350 208 350 359 355 278 220 245 308 287 168 258 298 310 326 345 344 341 342 342 349 356 358 10 23 27 32 39 41 47 52 50 43 50 48 61 62 75 75 71
186 154 283 227 249 243 121 219 196 117 309 281 258 278 154 232 291 331 338 348 354 351 343 346 352 359 6 13 23 34 35 42 42 51 59 56 52 51 52 60 73 66 75 70
214 239 12 357 28 283 169 233 189 188 343 247 203 276 164 220 360 347 346 353 350 355 353 351 360 5 11 17 24 39 44 49 50 55 61 60 57 58 59 63 75 76 75 76
119 143 148 193 221 159 316 243 266 147 121 242 235 293 311 347 348 339 351 352 348 354 354 2 11 15 19 27 32 40 50 54 60 61 63 63 56 57 60 70 76 75 76 74
128 207 175 260 230 157 264 259 232 193 202 180 248 266 297 330 334 336 341 356 357 1 360 6 10 14 21 26 33 42 51 59 65 66 61 57 59 59 65 67 72 75 73 76
38 257 92 305 344 162 291 252 227 191 253 266 271 285 254 317 12 351 341 335 342 353 1 6 18 26 33 37 26 39 49 57 64 68 66 60 63 71 67 66 72 75 74 71
102 114 55 278 303 61 342 234 199 254 219 174 51 227 313 320 307 250 290 329 351 359 11 15 29 35 43 43 48 48 49 48 52 60 64 69 69 68 64 63 69 70 71 70
135 112 135 282 0 17 245 202 163 205 233 211 304 241 187 215 251 255 256 235 17 17 7 8 23 75 63 57 56 58 53 55 63 66 70 62 67 72 76 71 67 66 70 69
128 139 100 103 192 288 125 215 168 167 269 183 195 204 194 197 160 293 205 190 197 235 260 299 315 358 57 63 67 73 66 63 58 55 66 83 85 77 76 68 70 78 82 75
128 116 122 154 114 190 235 248 166 141 306 173 165 173 184 177 119 238 187 191 206 208 222 205 190 127 72 29 41 66 61 65 67 63 58 50 55 71 80 81 76 75 75 81
200 218 175 188 239 284 236 173 169 84 240 156 162 164 163 208 194 167 132 107 204 230 96 55 47 60 66 73 74 75 59 50 35 55 60 56 57 69 77 86 82 88 88 88
173 155 196 146 202 301 163 77 169 211 350 151 156 160 166 154 127 116 120 137 151 149 91 68 95 80 60 63 87 77 76 43 53 55 57 51 41 84 79 89 85 75 78 82
281 190 186 186 213 233 198 171 217 176 151 194 156 155 152 141 176 157 158 157 169 172 154 127 124 120 94 80 101 120 216 93 94 83 97 83 75 90 81 82 87 87 80 76
244 172 219 35 281 216 207 210 231 181 205 146 142 146 154 153 157 160 164 177 178 176 174 163 158 159 159 163 149 155 162 154 136 142 150 141 123 107 82 96 99 100 94 90
197 130 194 264 266 349 240 217 189 190 164 133 128 153 161 152 168 167 173 180 184 184 181 174 179 175 172 165 163 176 171 166 154 141 135 126 108 102 101 82 122 103 118 133
187 187 175 220 219 199 175 202 168 167 184 171 150 143 157 163 166 169 180 182 180 184 177 185 188 176 178 174 176 185 185 178 158 150 162 158 135 113 100 93 48 60 125 108